Location: Hamilton
(37.7830°S, 175.2830°E)
Time: 02:59:40
(UTC+13:00)

Resurs 01 Rocket - Pass Details

Date: 24 January 2019
Orbit: 635 x 643 km, 98.1° (Epoch: 19 February)

Event Time Altitude Azimuth Distance (km) Brightness Sun altitude
Rises 23:13:22 0° 182° (S) 2,977 5.9 -24.5°
Reaches altitude 10° 23:15:54 10° 194° (SSW) 2,058 5.1 -24.8°
Maximum altitude 23:19:31 25° 248° (WSW) 1,313 3.7 -25.2°
Drops below altitude 10° 23:23:07 10° 303° (WNW) 2,033 4.2 -25.6°
Enters shadow 23:23:17 - 304° (NW) 2,090 4.2 -25.6°
